FW9082 Weather Reports


time (UTC)temp
F
wind
direction
speed
knots
gust
knots
rain 1hr
in
rain 24hr
in
rain mn
in
humidity
%
barometer
mb
20260504214533 76 257 0.9 6.1 0.00 0.00 0.00 41 1010.2
20260504213028 75 210 1.7 6.1 0.00 0.00 0.00 39 1010.2
20260504211536 75 255 1.7 4.3 0.00 0.00 0.00 39 1010.3
20260504210040 75 252 1.7 9.6 0.00 0.00 0.00 39 1010.2
20260504204532 75 266 2.6 5.2 0.00 0.00 0.00 40 1010.3
20260504203049 74 256 1.7 6.1 0.00 0.00 0.00 40 1010.3
20260504201532 74 253 1.7 6.1 0.00 0.00 0.00 40 1010.7
20260504200033 75 261 2.6 7.8 0.00 0.00 0.00 37 1011.0
20260504194533 74 18 2.6 9.6 0.00 0.00 0.00 40 1011.2
20260504193031 74 289 2.6 6.1 0.00 0.00 0.00 39 1011.5
20260504191530 73 283 2.6 7.8 0.00 0.00 0.00 39 1011.6
20260504190030 74 68 0.9 6.1 0.00 0.00 0.00 40 1011.6
20260504184534 73 165 3.5 6.1 0.00 0.00 0.00 39 1011.7
20260504183034 73 298 1.7 6.1 0.00 0.00 0.00 40 1011.9
20260504181530 72 309 2.6 7.8 0.00 0.00 0.00 39 1012.2
20260504180032 73 267 1.7 7.0 0.00 0.00 0.00 41 1012.3
20260504174532 72 272 1.7 6.1 0.00 0.00 0.00 40 1012.4
20260504173035 72 259 1.7 4.3 0.00 0.00 0.00 38 1012.6
20260504171531 71 252 1.7 7.0 0.00 0.00 0.00 43 1013.0
20260504081534 44 0 0.0 0.0 0.00 0.00 0.00 86 1015.6
20260504044533 46 0 0.0 0.9 0.00 0.00 0.00 73 1015.7
20260504043032 45 0 0.0 0.0 0.00 0.00 0.00 74 1015.5
20260504041532 45 0 0.0 0.0 0.00 0.00 0.00 73 1015.4
20260504040033 45 0 0.0 0.9 0.00 0.00 0.00 74 1015.3
20260504034533 45 0 0.0 0.0 0.00 0.00 0.00 73 1015.2
20260504033038 44 0 0.0 0.0 0.00 0.00 0.00 74 1014.9
20260504031533 44 0 0.0 0.0 0.00 0.00 0.00 71 1015.0
20260504030032 45 0 0.0 0.0 0.00 0.00 0.00 70 1014.8
20260504024532 45 0 0.0 0.0 0.00 0.00 0.00 70 1014.8
20260504023031 46 0 0.0 0.0 0.00 0.00 0.00 68 1014.9
20260504021534 45 0 0.0 0.9 0.00 0.00 0.00 70 1014.9
20260504020032 46 0 0.0 0.0 0.00 0.00 0.00 67 1014.9
20260504014545 46 0 0.0 0.0 0.00 0.00 0.00 66 1014.9
20260504013034 47 0 0.0 0.0 0.00 0.00 0.00 65 1014.8
20260504011530 48 0 0.0 0.0 0.00 0.00 0.00 63 1014.6
20260504010028 48 0 0.0 0.0 0.00 0.00 0.00 62 1014.5
20260504004533 49 0 0.0 0.0 0.00 0.00 0.00 60 1014.4
20260504003032 51 0 0.0 0.0 0.00 0.00 0.00 56 1014.3
20260504001537 53 0 0.0 0.0 0.00 0.00 0.00 52 1014.2
20260504000039 54 0 0.0 0.0 0.00 0.00 0.00 50 1014.0
20260503234532 55 0 0.0 0.0 0.00 0.00 0.00 50 1013.8
20260503233032 56 0 0.0 0.0 0.00 0.00 0.00 46 1013.7
20260503231541 58 252 0.0 1.7 0.00 0.00 0.00 43 1013.6
20260503230033 59 0 0.0 2.6 0.00 0.00 0.00 41 1013.7
20260503224536 60 13 0.9 3.5 0.00 0.00 0.00 38 1013.6
20260503223031 61 219 0.9 6.1 0.00 0.00 0.00 38 1013.6
20260503221537 61 348 0.9 7.0 0.00 0.00 0.00 37 1013.6
20260503220032 62 191 0.9 8.7 0.00 0.00 0.00 35 1013.6